Location: Unspecified
(43.4680°N, 87.1740°E)
Time: 04:48:37
(UTC+00:00)

OBJECT-B - Pass Details

Date: 17 April 2021
Orbit: 414 x 423 km, 97.0° (Epoch: 16 May)

Event Time Altitude Azimuth Distance (km) Brightness Sun altitude
Exits shadow 14:18:18 - 184° (S) 1,598 3.4 -14.4°
Reaches altitude 10° 14:18:33 10° 185° (S) 1,493 3.3 -14.5°
Maximum altitude 14:21:39 47° 261° (W) 562 1.7 -14.9°
Drops below altitude 10° 14:24:48 10° 337° (NNW) 1,512 4.4 -15.4°
Sets 14:26:51 0° 343° (NNW) 2,384 5.4 -15.7°
